Probability
0 1 2 2 0 0 0 0 2 9 19 29 35 39 41 37 27 16 8 4 2 1 0 0 0 0 0 0 0 0 0 0 0 0 0 0 0 0 0 0 0 0 0
0 2 3 3 1 0 0 0 2 5 10 15 20 23 25 24 19 12 7 3 1 0 0 0 0 0 0 0 0 0 0 0 0 0 0 0 0 0 0 0 0 0 0
1 2 3 3 2 1 0 0 1 2 2 2 4 6 7 7 6 4 3 1 0 0 0 0 0 0 0 0 0 0 0 0 0 0 0 0 0 0 0 0 0 0 0
0 1 2 3 3 2 1 0 0 0 0 0 0 0 0 0 0 0 0 0 0 0 0 0 0 0 0 0 0 0 0 0 0 0 0 0 0 0 0 0 0 0 0
0 0 2 3 4 2 1 0 0 0 0 0 0 0 0 0 0 0 0 0 0 0 0 0 0 0 0 0 0 0 0 0 0 0 0 0 0 0 0 0 0 0 0
0 1 3 4 4 3 1 0 0 0 0 0 0 0 0 0 0 0 0 0 0 0 0 0 0 0 0 0 0 0 0 0 0 0 0 0 0 0 0 0 0 0 0
1 2 3 4 4 3 1 0 0 0 0 0 0 0 0 0 0 0 0 0 0 0 0 0 0 0 0 0 0 0 0 0 0 0 0 0 0 0 0 0 0 0 0
2 2 3 3 3 2 1 0 0 0 0 0 0 0 0 0 0 0 0 0 0 0 0 0 0 0 0 0 0 0 0 0 0 0 0 0 0 0 0 0 1 1 1
2 2 1 1 1 2 2 1 0 0 0 0 0 0 0 0 0 0 0 0 0 0 0 0 0 0 0 0 0 0 0 0 0 0 0 0 1 1 0 1 2 2 1
2 1 0 0 1 3 3 2 1 2 1 0 0 0 0 0 0 0 0 0 0 0 0 0 0 0 0 0 0 0 0 0 0 0 0 1 2 2 2 2 3 2 1
1 0 0 1 3 5 4 2 3 4 3 1 0 0 0 0 0 0 0 0 0 0 0 0 0 0 0 0 0 0 0 0 0 0 0 1 3 4 4 4 3 1 1
0 0 0 2 4 6 5 3 3 3 2 1 0 0 0 0 0 0 0 0 0 0 0 0 0 0 0 0 0 0 0 0 0 0 0 1 4 5 5 4 2 0 0
0 0 0 1 4 6 7 6 4 2 1 0 0 0 0 0 0 0 0 0 0 0 0 0 0 0 0 0 0 0 0 0 0 0 1 4 7 8 8 7 5 3 3
0 0 0 0 3 7 10 11 8 4 1 0 0 0 0 0 0 0 0 0 0 0 0 0 0 0 0 0 0 0 0 0 0 0 1 5 12 15 14 14 13 12 12
1 0 0 1 5 11 16 16 12 6 2 0 0 0 0 0 0 0 0 0 0 0 0 0 0 0 0 0 0 0 0 0 0 0 0 4 12 20 21 21 23 23 22
4 2 1 4 10 17 21 21 16 8 2 0 0 0 0 0 0 0 0 0 0 0 0 0 0 0 0 0 0 0 0 0 0 0 0 1 7 14 19 22 25 27 25
15 8 4 9 15 22 26 24 17 8 2 1 0 0 0 0 0 0 0 0 0 0 0 0 0 0 0 0 0 0 0 0 0 0 0 0 2 5 9 14 20 23 24
38 27 19 23 28 33 36 28 17 8 4 2 1 0 0 0 0 0 0 0 0 0 0 0 0 0 0 0 0 0 0 0 0 0 0 0 0 0 2 5 10 15 18
66 57 51 51 54 57 55 40 22 13 8 4 2 1 1 1 0 0 0 0 0 0 0 0 0 0 0 0 0 0 0 0 0 0 0 0 0 0 0 1 3 5 8
86 83 81 81 82 81 75 56 35 21 11 5 3 2 2 1 0 0 0 0 0 0 0 0 0 0 0 0 0 0 0 0 0 0 0 0 0 0 0 0 0 0 1
91 92 93 94 93 91 83 64 41 22 9 3 2 1 1 1 0 0 0 0 0 0 0 0 0 0 0 0 0 0 0 0 0 0 0 0 0 0 0 0 0 0 0
82 88 91 90 89 84 72 52 28 11 3 1 1 0 0 0 0 0 0 0 0 0 0 0 0 0 0 0 0 0 0 0 0 0 0 0 0 0 0 0 0 0 0
69 75 80 80 77 67 50 30 12 3 0 0 0 0 0 0 0 0 0 0 0 0 0 0 0 0 0 0 0 0 0 0 0 0 0 0 0 0 0 0 0 0 0
56 61 65 66 61 49 34 19 8 2 0 0 0 0 0 0 0 0 0 0 0 0 0 0 0 0 0 0 0 0 0 0 0 0 0 0 0 0 0 0 0 0 0
50 52 54 52 45 35 23 13 6 2 0 0 0 0 0 0 0 0 0 0 0 0 0 0 0 0 0 0 0 0 0 0 0 0 0 0 0 0 0 0 0 0 0
46 48 50 47 36 24 13 6 3 1 0 0 0 0 0 0 0 0 0 0 0 0 0 0 0 0 0 0 0 0 0 0 0 0 0 0 0 0 0 0 0 0 0
Wind_Speed
6 6 12 15 16 15 15 15 15 15 15 15 15 15 14 14 13 12 12 12 11 11 12 12 12 12 12 11 11 11 10 10 10 10 10 10 9 10 11 11 11 9 12
10 9 13 14 15 16 16 16 15 14 14 14 14 14 13 13 12 12 11 11 11 11 11 11 11 11 11 11 10 10 9 8 7 8 9 8 8 8 9 10 10 7 11
11 9 12 14 15 16 16 16 15 15 15 14 13 13 13 12 12 11 11 11 10 10 10 9 9 10 10 9 9 8 7 6 5 6 7 4 5 7 8 10 10 10 10
12 8 10 15 14 16 16 16 16 16 15 14 13 13 13 12 11 11 11 11 10 9 8 8 8 9 8 8 7 7 6 5 4 5 3 2 2 7 8 10 10 10 10
10 8 10 17 15 16 16 16 16 16 15 14 14 13 12 12 10 10 10 10 9 8 7 7 7 7 7 7 6 5 4 3 3 3 3 2 2 5 8 9 10 10 10
10 8 10 17 16 16 16 16 16 16 15 14 14 13 12 11 10 10 10 9 9 8 7 7 6 6 6 5 5 4 3 2 3 2 2 2 2 5 7 8 9 9 9
9 7 9 15 16 17 17 17 16 15 15 14 14 13 12 10 10 9 9 9 8 7 7 6 5 5 4 4 4 3 3 2 3 2 2 2 3 5 7 8 8 9 9
10 8 8 16 18 17 17 16 15 15 14 13 12 12 11 10 9 9 9 9 8 7 6 5 4 4 3 3 3 3 3 3 2 2 2 2 3 5 6 6 6 7 8
9 8 7 8 12 17 17 16 15 14 13 12 12 11 10 10 10 10 9 8 7 6 5 4 3 2 1 1 2 3 3 2 2 1 2 2 4 6 6 6 6 6 6
8 8 7 6 6 7 10 16 16 15 14 13 13 13 12 11 11 10 8 8 7 6 5 4 3 1 1 1 2 3 3 1 1 1 1 3 6 7 7 6 6 6 6
10 9 7 7 7 6 7 11 13 15 14 13 11 13 10 5 5 5 7 8 8 7 5 4 3 2 2 2 3 4 2 0 1 1 2 4 7 7 7 6 6 6 6
14 13 9 9 9 8 8 6 5 6 6 6 5 6 4 3 3 4 5 9 8 6 5 4 3 2 2 2 3 4 1 1 1 2 2 6 7 8 7 7 7 7 7
13 13 12 11 10 10 6 5 4 3 4 5 6 5 4 3 2 2 1 2 2 2 0 2 3 2 2 2 2 2 2 1 1 1 2 5 6 7 8 7 7 7 7
12 14 13 13 11 10 7 6 6 5 4 4 5 5 4 3 3 2 1 1 0 1 1 1 1 2 2 2 3 3 4 3 2 2 3 4 4 5 7 7 7 8 7
15 16 14 14 13 11 8 7 7 7 6 6 5 5 5 4 4 3 1 1 1 1 1 1 1 3 4 4 5 6 6 6 5 4 3 7 7 5 7 8 9 9 9
17 16 14 15 14 11 10 8 7 7 6 5 5 5 6 4 3 3 2 1 1 2 2 2 3 4 4 4 6 6 6 6 5 5 5 6 9 9 8 8 10 11 11
16 15 15 15 13 12 11 9 6 5 5 4 4 4 5 4 3 3 2 2 2 3 4 4 5 4 4 4 6 6 5 5 5 5 5 4 5 8 10 9 8 9 10
12 13 14 14 13 12 9 7 4 3 3 2 2 3 4 4 4 3 2 2 3 3 4 4 3 4 4 4 3 3 3 3 5 5 5 6 5 5 8 12 11 9 7
14 13 13 12 12 11 8 5 4 3 3 2 2 1 2 3 4 4 3 3 4 4 4 4 3 3 3 2 3 3 3 3 4 5 7 7 7 7 6 10 14 14 13
12 12 11 11 9 8 6 4 4 5 5 4 4 2 4 4 7 7 5 5 5 5 4 3 4 4 2 1 2 4 4 4 4 5 6 6 6 8 8 8 8 10 15
11 12 12 11 8 7 5 5 4 4 4 5 4 5 5 6 8 7 6 5 5 4 4 3 3 4 3 1 2 2 3 4 5 4 4 5 6 6 7 7 6 5 6
9 9 9 8 7 7 5 5 5 6 5 4 4 4 5 6 7 7 7 6 5 5 4 3 3 3 2 3 2 2 2 1 2 3 2 4 4 4 5 5 5 5 4
6 7 6 8 8 9 10 8 7 6 4 3 3 2 3 5 5 6 6 6 5 5 4 4 3 4 3 2 3 2 2 1 2 1 1 1 2 2 2 2 3 3 3
5 7 10 11 12 11 11 9 8 5 4 3 3 2 3 4 5 6 6 7 6 4 5 4 4 3 4 2 2 3 2 2 1 2 2 2 2 2 3 3 4 4 4
9 11 12 13 13 11 10 9 8 6 5 4 5 5 4 4 5 6 6 6 5 4 5 5 5 4 3 3 2 2 2 2 1 1 4 4 4 3 4 4 4 5 5
11 11 11 13 12 10 9 8 9 9 7 7 7 6 5 4 4 5 6 5 5 4 5 4 4 5 3 3 2 2 2 2 2 3 4 5 6 6 5 5 5 5 5
Wind_Direction
156 154 159 151 147 141 134 127 121 115 111 110 111 112 115 117 118 119 118 116 112 108 102 98 95 93 92 93 94 94 95 99 105 108 111 110 111 117 118 116 115 116 117
142 146 154 151 148 142 137 132 126 121 116 113 112 113 114 115 115 116 117 116 115 112 108 104 100 98 95 94 94 95 95 94 106 118 113 107 105 113 125 121 124 126 125
133 142 150 151 148 142 138 134 131 128 125 122 121 121 121 121 122 122 123 123 123 122 118 113 106 101 97 94 94 96 97 93 90 101 93 82 103 117 130 129 132 131 130
134 137 148 151 148 143 140 137 136 135 134 133 133 134 134 133 133 134 135 134 132 130 125 118 109 102 97 93 90 91 94 98 103 107 101 111 125 132 135 137 139 140 137
133 138 155 152 149 146 143 142 141 141 141 142 144 144 144 144 142 143 145 144 141 138 133 125 113 104 98 92 87 84 83 92 117 118 137 142 139 151 149 148 148 148 147
137 144 156 154 152 149 148 148 148 148 149 151 152 154 154 154 154 155 154 152 150 148 144 133 118 106 96 87 79 70 58 59 102 122 149 157 159 170 162 161 160 158 158
142 146 156 155 156 155 155 155 155 156 157 158 160 161 161 161 162 162 162 162 161 160 154 141 122 105 90 76 66 51 35 45 104 127 142 154 173 187 179 176 172 170 170
146 148 157 162 163 162 162 161 162 162 163 164 165 166 167 167 168 168 170 172 174 173 166 150 129 110 88 66 53 40 28 36 89 112 145 159 185 190 182 180 178 180 181
148 153 161 169 168 168 167 166 166 166 167 168 170 171 172 173 175 178 180 182 185 184 180 168 148 128 87 35 24 15 3 18 90 126 164 168 193 190 187 185 184 187 191
157 166 168 171 168 167 170 173 173 173 173 175 178 180 181 183 185 190 189 192 194 197 198 193 183 189 263 327 339 333 323 16 103 185 188 199 201 200 198 194 196 197 198
178 183 179 175 172 168 170 181 178 180 181 182 185 188 186 184 190 197 200 203 206 208 212 212 214 241 287 330 330 322 330 99 207 224 219 222 212 212 210 206 211 212 213
189 191 189 185 179 174 180 179 176 178 181 181 177 186 177 172 191 201 214 216 218 218 226 232 245 287 351 2 341 348 357 293 229 237 233 231 225 223 222 219 223 228 229
191 192 194 191 186 182 181 173 173 171 173 180 183 182 170 169 185 200 193 239 246 241 297 3 7 20 18 355 353 2 2 8 352 310 276 249 240 236 237 236 237 241 242
190 197 195 193 191 190 184 179 178 179 181 187 190 182 169 171 184 193 191 195 122 69 67 41 27 21 27 32 37 38 38 39 32 21 350 323 296 270 263 259 254 254 253
196 199 196 195 195 192 188 184 185 188 188 188 186 185 178 180 189 191 187 160 144 118 108 71 59 63 61 58 57 59 51 45 41 35 16 9 3 338 303 288 277 269 264
200 200 197 197 197 193 193 190 189 188 185 183 186 186 183 183 182 179 179 165 149 136 124 107 98 91 77 70 62 56 53 47 43 38 31 18 14 7 348 317 297 285 275
200 198 198 199 197 196 196 193 188 185 179 184 187 181 181 183 181 171 165 153 130 119 112 100 90 83 78 70 62 54 48 43 43 40 36 28 18 17 12 359 338 311 288
196 197 199 200 197 197 195 186 177 165 165 173 172 169 179 178 165 148 134 114 101 98 99 98 87 78 67 72 76 58 42 38 46 52 50 43 35 28 23 24 19 8 346
198 195 196 200 193 190 181 165 150 124 122 115 111 126 148 143 130 114 103 95 92 82 79 90 66 78 71 69 97 80 52 50 51 63 58 50 47 43 37 32 33 32 29
194 193 194 196 186 168 157 130 108 88 80 68 61 70 101 109 111 106 101 100 96 91 77 80 88 67 64 46 83 77 59 65 67 62 57 53 51 52 48 44 35 30 33
191 190 191 190 174 157 148 136 117 97 84 73 63 68 91 107 111 113 118 107 103 105 117 126 108 85 49 355 84 65 54 60 71 59 56 59 55 49 49 46 40 33 22
195 189 183 174 156 148 128 112 105 103 91 86 85 83 98 113 121 127 131 126 120 116 113 118 130 114 60 18 87 89 36 17 36 45 42 60 52 40 37 33 29 23 15
182 169 150 136 126 117 112 106 105 100 94 83 76 75 86 106 116 120 124 122 121 123 124 116 121 127 122 47 36 117 137 232 313 336 346 23 15 24 5 340 351 346 340
127 115 113 112 112 114 116 120 119 113 106 95 99 94 87 92 103 112 117 119 120 120 119 113 100 110 121 119 64 46 79 134 183 315 307 297 308 313 308 307 307 298 294
93 100 106 108 110 114 115 122 119 110 108 117 120 117 102 88 93 104 108 110 112 111 106 103 101 94 96 117 119 109 94 72 106 206 282 302 304 283 274 273 275 276 276
88 96 104 108 106 107 109 111 116 122 135 143 138 127 115 99 91 96 103 102 106 107 107 107 104 103 103 110 119 135 154 172 199 207 247 273 287 292 288 271 262 264 268